Location: *
(18.8250°N, 79.9100°E)
Time: 05:53:55
(UTC+00:00)

Daily predictions for brighter satellites

Satellite Brightness Start Highest point End
(mag) Time Altitude Azimuth Time Altitude Azimuth Time Altitude Azimuth
CZ-3B R/B 4.5 00:00:04 10° SW 00:05:30 56° SE 00:27:10 10° ENE
Cosmos 1484 Rocket 3.5 00:03:12 10° NNW 00:06:35 31° WNW 00:09:59 10° SW
PSLV R/B 2.6 00:05:15 10° WSW 00:07:51 61° NW 00:10:27 10° NE
SL-16 R/B 2.3 00:02:42 10° SSW 00:08:20 84° ESE 00:14:00 10° NNE
Cosmos 2154 Rocket 4.2 00:11:24 10° SSW 00:17:19 47° W 00:23:15 10° N
